| time (UTC) | temp F | wind direction | speed knots | gust knots | rain 1hr in | rain 24hr in | rain mn in | humidity % | barometer mb |
| 20260503184829 | 80 | 202 | 4.3 | 11.3 | 0.00 | 0.00 | 0.00 | 12 | 1014.2 |
| 20260503184327 | 80 | 261 | 4.3 | 16.5 | 0.00 | 0.00 | 0.00 | 11 | 1014.4 |
| 20260503183827 | 79 | 142 | 4.3 | 16.5 | 0.00 | 0.00 | 0.00 | 11 | 1014.4 |
| 20260503183329 | 78 | 113 | 5.2 | 20.0 | 0.00 | 0.00 | 0.00 | 13 | 1014.5 |
| 20260503182827 | 78 | 56 | 6.1 | 20.0 | 0.00 | 0.00 | 0.00 | 13 | 1014.5 |
| 20260503182328 | 78 | 72 | 4.3 | 16.5 | 0.00 | 0.00 | 0.00 | 13 | 1014.5 |
| 20260503181826 | 78 | 182 | 4.3 | 9.6 | 0.00 | 0.00 | 0.00 | 12 | 1014.4 |
| 20260503181327 | 79 | 107 | 4.3 | 9.6 | 0.00 | 0.00 | 0.00 | 11 | 1014.5 |
| 20260503180826 | 79 | 173 | 3.5 | 9.6 | 0.00 | 0.00 | 0.00 | 11 | 1014.5 |
| 20260503180324 | 79 | 1 | 3.5 | 11.3 | 0.00 | 0.00 | 0.00 | 11 | 1014.5 |
| 20260503175322 | 78 | 179 | 3.5 | 12.2 | 0.00 | 0.00 | 0.00 | 11 | 1014.8 |
| 20260503174314 | 79 | 195 | 2.6 | 13.0 | 0.00 | 0.00 | 0.00 | 11 | 1014.6 |
| 20260503173811 | 78 | 147 | 2.6 | 8.7 | 0.00 | 0.00 | 0.00 | 11 | 1014.9 |
| 20260503172309 | 77 | 193 | 4.3 | 16.5 | 0.00 | 0.00 | 0.00 | 11 | 1015.0 |
| 20260503171806 | 77 | 121 | 4.3 | 10.4 | 0.00 | 0.00 | 0.00 | 12 | 1015.1 |
| 20260503171306 | 77 | 67 | 4.3 | 11.3 | 0.00 | 0.00 | 0.00 | 11 | 1015.1 |
| 20260503170806 | 76 | 86 | 3.5 | 11.3 | 0.00 | 0.00 | 0.00 | 12 | 1015.1 |
| 20260503150622 | 70 | 89 | 4.3 | 10.4 | 0.00 | 0.00 | 0.00 | 12 | 1015.9 |
| 20260503150116 | 70 | 107 | 5.2 | 11.3 | 0.00 | 0.00 | 0.00 | 12 | 1015.8 |
| 20260503131409 | 63 | 148 | 2.6 | 4.3 | 0.00 | 0.00 | 0.00 | 16 | 1015.1 |
| 20260503130903 | 62 | 157 | 2.6 | 5.2 | 0.00 | 0.00 | 0.00 | 16 | 1015.0 |
| 20260503130358 | 62 | 165 | 2.6 | 5.2 | 0.00 | 0.00 | 0.00 | 16 | 1015.0 |
| 20260503110750 | 61 | 186 | 2.6 | 4.3 | 0.00 | 0.00 | 0.00 | 14 | 1015.4 |
| 20260503110245 | 62 | 173 | 1.7 | 3.5 | 0.00 | 0.00 | 0.00 | 14 | 1015.6 |
| 20260503090207 | 63 | 187 | 2.6 | 3.5 | 0.00 | 0.00 | 0.00 | 8 | 1015.6 |
| 20260503081206 | 58 | 180 | 1.7 | 2.6 | 0.00 | 0.00 | 0.00 | 10 | 1016.2 |
| 20260503080707 | 58 | 181 | 0.9 | 1.7 | 0.00 | 0.00 | 0.00 | 11 | 1016.4 |
| 20260503080205 | 58 | 171 | 0.9 | 1.7 | 0.00 | 0.00 | 0.00 | 11 | 1016.4 |
| 20260503072706 | 60 | 203 | 1.7 | 2.6 | 0.00 | 0.00 | 0.00 | 9 | 1016.6 |
| 20260503071703 | 60 | 175 | 1.7 | 2.6 | 0.00 | 0.00 | 0.00 | 9 | 1016.6 |
| 20260503071201 | 59 | 175 | 0.9 | 2.6 | 0.00 | 0.00 | 0.00 | 10 | 1016.7 |
| 20260503070702 | 58 | 193 | 0.0 | 1.7 | 0.00 | 0.00 | 0.00 | 10 | 1016.6 |
| 20260503060115 | 64 | 221 | 0.9 | 4.3 | 0.00 | 0.00 | 0.00 | 7 | 1016.6 |
| 20260503054612 | 65 | 176 | 1.7 | 3.5 | 0.00 | 0.00 | 0.00 | 6 | 1016.6 |
| 20260503054112 | 64 | 160 | 1.7 | 3.5 | 0.00 | 0.00 | 0.00 | 7 | 1016.5 |
| 20260503053611 | 65 | 167 | 1.7 | 4.3 | 0.00 | 0.00 | 0.00 | 6 | 1016.5 |
| 20260503053111 | 65 | 195 | 1.7 | 4.3 | 0.00 | 0.00 | 0.00 | 6 | 1016.5 |
| 20260503052610 | 65 | 216 | 1.7 | 4.3 | 0.00 | 0.00 | 0.00 | 6 | 1016.6 |
| 20260503051615 | 65 | 195 | 2.6 | 4.3 | 0.00 | 0.00 | 0.00 | 6 | 1016.6 |
| 20260503050609 | 65 | 193 | 1.7 | 4.3 | 0.00 | 0.00 | 0.00 | 6 | 1016.5 |
| 20260503050112 | 65 | 207 | 1.7 | 4.3 | 0.00 | 0.00 | 0.00 | 6 | 1016.6 |
| 20260503045606 | 66 | 224 | 2.6 | 4.3 | 0.00 | 0.00 | 0.00 | 6 | 1016.6 |
| 20260503045110 | 66 | 229 | 2.6 | 5.2 | 0.00 | 0.00 | 0.00 | 6 | 1016.5 |
| 20260503044606 | 66 | 195 | 2.6 | 5.2 | 0.00 | 0.00 | 0.00 | 6 | 1016.5 |
| 20260503043600 | 66 | 198 | 1.7 | 4.3 | 0.00 | 0.00 | 0.00 | 6 | 1016.4 |
| 20260503043057 | 66 | 194 | 1.7 | 4.3 | 0.00 | 0.00 | 0.00 | 6 | 1016.4 |
| 20260503042551 | 66 | 195 | 1.7 | 3.5 | 0.00 | 0.00 | 0.00 | 6 | 1016.2 |
| 20260503042042 | 66 | 201 | 1.7 | 4.3 | 0.00 | 0.00 | 0.00 | 6 | 1016.2 |
| 20260503041536 | 67 | 205 | 1.7 | 4.3 | 0.00 | 0.00 | 0.00 | 5 | 1016.2 |
| 20260503041030 | 67 | 173 | 1.7 | 4.3 | 0.00 | 0.00 | 0.00 | 5 | 1016.0 |
| 20260503040524 | 67 | 199 | 1.7 | 5.2 | 0.00 | 0.00 | 0.00 | 5 | 1016.0 |
| 20260503035513 | 68 | 264 | 1.7 | 5.2 | 0.00 | 0.00 | 0.00 | 5 | 1015.9 |
| 20260503035006 | 69 | 225 | 2.6 | 5.2 | 0.00 | 0.00 | 0.00 | 5 | 1015.9 |
| 20260503033956 | 69 | 210 | 2.6 | 5.2 | 0.00 | 0.00 | 0.00 | 4 | 1015.8 |
| 20260503033448 | 69 | 215 | 1.7 | 5.2 | 0.00 | 0.00 | 0.00 | 4 | 1015.8 |
| 20260503032943 | 69 | 179 | 1.7 | 6.1 | 0.00 | 0.00 | 0.00 | 4 | 1015.8 |
| 20260503032441 | 69 | 232 | 1.7 | 6.1 | 0.00 | 0.00 | 0.00 | 4 | 1015.8 |
| 20260503031930 | 70 | 274 | 2.6 | 6.1 | 0.00 | 0.00 | 0.00 | 4 | 1015.6 |
| 20260503031427 | 70 | 266 | 2.6 | 6.1 | 0.00 | 0.00 | 0.00 | 4 | 1015.6 |
| 20260503025906 | 71 | 203 | 2.6 | 7.8 | 0.00 | 0.00 | 0.00 | 3 | 1015.4 |
| 20260503025400 | 71 | 214 | 2.6 | 7.8 | 0.00 | 0.00 | 0.00 | 3 | 1015.3 |
| 20260503024854 | 71 | 243 | 2.6 | 7.0 | 0.00 | 0.00 | 0.00 | 3 | 1015.3 |
| 20260503024348 | 71 | 253 | 1.7 | 7.0 | 0.00 | 0.00 | 0.00 | 3 | 1015.2 |
| 20260503023845 | 71 | 245 | 0.9 | 3.5 | 0.00 | 0.00 | 0.00 | 4 | 1015.1 |
| 20260503023337 | 71 | 260 | 1.7 | 5.2 | 0.00 | 0.00 | 0.00 | 4 | 1015.1 |
| 20260503022830 | 72 | 217 | 1.7 | 5.2 | 0.00 | 0.00 | 0.00 | 4 | 1015.1 |
| 20260503022325 | 72 | 217 | 2.6 | 9.6 | 0.00 | 0.00 | 0.00 | 4 | 1015.1 |
| 20260503021818 | 72 | 262 | 3.5 | 9.6 | 0.00 | 0.00 | 0.00 | 3 | 1015.1 |
| 20260503021312 | 73 | 284 | 3.5 | 8.7 | 0.00 | 0.00 | 0.00 | 3 | 1015.1 |
| 20260503020807 | 73 | 275 | 2.6 | 8.7 | 0.00 | 0.00 | 0.00 | 3 | 1015.1 |
| 20260503020301 | 73 | 195 | 1.7 | 7.0 | 0.00 | 0.00 | 0.00 | 3 | 1015.0 |
| 20260503015755 | 73 | 206 | 2.6 | 7.8 | 0.00 | 0.00 | 0.00 | 3 | 1014.9 |
| 20260503015248 | 73 | 243 | 2.6 | 7.8 | 0.00 | 0.00 | 0.00 | 3 | 1015.0 |
| 20260503014746 | 74 | 293 | 3.5 | 8.7 | 0.00 | 0.00 | 0.00 | 3 | 1014.9 |
| 20260503014239 | 74 | 188 | 3.5 | 8.7 | 0.00 | 0.00 | 0.00 | 3 | 1015.0 |
| 20260503013737 | 74 | 260 | 3.5 | 8.7 | 0.00 | 0.00 | 0.00 | 3 | 1014.9 |
| 20260503013235 | 74 | 248 | 4.3 | 8.7 | 0.00 | 0.00 | 0.00 | 3 | 1014.9 |
| 20260503012742 | 75 | 278 | 4.3 | 9.6 | 0.00 | 0.00 | 0.00 | 3 | 1014.9 |
| 20260503012235 | 76 | 193 | 3.5 | 9.6 | 0.00 | 0.00 | 0.00 | 3 | 1014.8 |
| 20260503011733 | 76 | 244 | 1.7 | 7.8 | 0.00 | 0.00 | 0.00 | 2 | 1014.6 |
| 20260503011235 | 77 | 243 | 2.6 | 8.7 | 0.00 | 0.00 | 0.00 | 2 | 1014.6 |
| 20260503010733 | 77 | 235 | 2.6 | 8.7 | 0.00 | 0.00 | 0.00 | 3 | 1014.6 |
| 20260503010231 | 78 | 297 | 1.7 | 6.1 | 0.00 | 0.00 | 0.00 | 2 | 1014.8 |
| 20260503005730 | 78 | 240 | 3.5 | 7.0 | 0.00 | 0.00 | 0.00 | 2 | 1014.8 |
| 20260503005230 | 77 | 162 | 3.5 | 8.7 | 0.00 | 0.00 | 0.00 | 3 | 1014.8 |
| 20260503004731 | 77 | 266 | 2.6 | 8.7 | 0.00 | 0.00 | 0.00 | 3 | 1014.8 |
| 20260503004230 | 77 | 293 | 2.6 | 7.8 | 0.00 | 0.00 | 0.00 | 3 | 1014.8 |
| 20260503003727 | 77 | 247 | 3.5 | 8.7 | 0.00 | 0.00 | 0.00 | 3 | 1014.8 |
| 20260503002727 | 77 | 201 | 3.5 | 9.6 | 0.00 | 0.00 | 0.00 | 3 | 1014.9 |
| 20260503002227 | 78 | 215 | 1.7 | 7.8 | 0.00 | 0.00 | 0.00 | 2 | 1014.8 |
| 20260503001730 | 79 | 214 | 1.7 | 7.8 | 0.00 | 0.00 | 0.00 | 1 | 1014.9 |
| 20260503001235 | 79 | 221 | 1.7 | 7.8 | 0.00 | 0.00 | 0.00 | 1 | 1014.9 |
| 20260503000226 | 78 | 209 | 2.6 | 11.3 | 0.00 | 0.00 | 0.00 | 1 | 1014.9 |
| 20260502235721 | 78 | 203 | 2.6 | 9.6 | 0.00 | 0.00 | 0.00 | 1 | 1014.8 |
| 20260502235221 | 79 | 150 | 4.3 | 13.9 | 0.00 | 0.00 | 0.00 | 1 | 1014.6 |
| 20260502234723 | 80 | 136 | 4.3 | 13.9 | 0.00 | 0.00 | 0.00 | 1 | 1014.6 |
| 20260502234223 | 81 | 107 | 1.7 | 9.6 | 0.00 | 0.00 | 0.00 | 1 | 1014.6 |
| 20260502233721 | 81 | 269 | 2.6 | 8.7 | 0.00 | 0.00 | 0.00 | 1 | 1014.6 |
| 20260502233221 | 80 | 334 | 4.3 | 13.9 | 0.00 | 0.00 | 0.00 | 1 | 1014.8 |
| 20260502232721 | 80 | 149 | 3.5 | 13.9 | 0.00 | 0.00 | 0.00 | 1 | 1014.9 |
| 20260502232221 | 81 | 193 | 2.6 | 9.6 | 0.00 | 0.00 | 0.00 | 1 | 1014.8 |
| 20260502231721 | 80 | 107 | 2.6 | 7.8 | 0.00 | 0.00 | 0.00 | 1 | 1014.6 |
| 20260502231221 | 80 | 86 | 4.3 | 11.3 | 0.00 | 0.00 | 0.00 | 1 | 1014.9 |
| 20260502230221 | 80 | 103 | 3.5 | 12.2 | 0.00 | 0.00 | 0.00 | 1 | 1014.9 |
| 20260502225722 | 80 | 247 | 3.5 | 13.0 | 0.00 | 0.00 | 0.00 | 1 | 1014.9 |
| 20260502225220 | 80 | 133 | 2.6 | 13.0 | 0.00 | 0.00 | 0.00 | 1 | 1014.9 |
| 20260502224721 | 80 | 5 | 3.5 | 11.3 | 0.00 | 0.00 | 0.00 | 1 | 1014.9 |
| 20260502224222 | 80 | 157 | 4.3 | 13.9 | 0.00 | 0.00 | 0.00 | 1 | 1015.1 |
| 20260502223722 | 80 | 80 | 4.3 | 13.9 | 0.00 | 0.00 | 0.00 | 1 | 1015.0 |
| 20260502223226 | 80 | 216 | 3.5 | 9.6 | 0.00 | 0.00 | 0.00 | 1 | 1015.1 |
| 20260502222724 | 80 | 63 | 3.5 | 9.6 | 0.00 | 0.00 | 0.00 | 1 | 1015.3 |
| 20260502222226 | 80 | 104 | 3.5 | 12.2 | 0.00 | 0.00 | 0.00 | 1 | 1015.3 |
| 20260502221724 | 80 | 201 | 3.5 | 12.2 | 0.00 | 0.00 | 0.00 | 1 | 1015.3 |
| 20260502221224 | 80 | 90 | 4.3 | 8.7 | 0.00 | 0.00 | 0.00 | 1 | 1015.4 |
| 20260502220721 | 80 | 94 | 3.5 | 8.7 | 0.00 | 0.00 | 0.00 | 1 | 1015.6 |
| 20260502220223 | 79 | 204 | 2.6 | 7.0 | 0.00 | 0.00 | 0.00 | 1 | 1015.7 |
| 20260502215723 | 79 | 27 | 3.5 | 8.7 | 0.00 | 0.00 | 0.00 | 1 | 1015.8 |
| 20260502215221 | 79 | 110 | 2.6 | 8.7 | 0.00 | 0.00 | 0.00 | 1 | 1015.9 |
| 20260502213721 | 80 | 77 | 3.5 | 8.7 | 0.00 | 0.00 | 0.00 | 1 | 1016.2 |
| 20260502213221 | 80 | 222 | 2.6 | 8.7 | 0.00 | 0.00 | 0.00 | 1 | 1016.2 |
| 20260502212222 | 79 | 120 | 4.3 | 12.2 | 0.00 | 0.00 | 0.00 | 1 | 1016.4 |
| 20260502211722 | 79 | 82 | 3.5 | 8.7 | 0.00 | 0.00 | 0.00 | 1 | 1016.4 |
| 20260502211222 | 79 | 330 | 3.5 | 8.7 | 0.00 | 0.00 | 0.00 | 1 | 1016.5 |
| 20260502210720 | 80 | 99 | 2.6 | 6.1 | 0.00 | 0.00 | 0.00 | 1 | 1016.6 |
| 20260502210221 | 79 | 250 | 2.6 | 7.8 | 0.00 | 0.00 | 0.00 | 1 | 1016.6 |
| 20260502205722 | 78 | 21 | 1.7 | 7.8 | 0.00 | 0.00 | 0.00 | 1 | 1016.8 |
| 20260502205216 | 78 | 251 | 2.6 | 7.0 | 0.00 | 0.00 | 0.00 | 1 | 1016.8 |
| 20260502204716 | 78 | 11 | 4.3 | 10.4 | 0.00 | 0.00 | 0.00 | 1 | 1016.9 |
| 20260502204216 | 78 | 192 | 4.3 | 10.4 | 0.00 | 0.00 | 0.00 | 1 | 1016.9 |
| 20260502203715 | 78 | 292 | 3.5 | 8.7 | 0.00 | 0.00 | 0.00 | 1 | 1016.8 |
| 20260502203215 | 79 | 82 | 4.3 | 9.6 | 0.00 | 0.00 | 0.00 | 1 | 1017.0 |
| 20260502202716 | 79 | 89 | 2.6 | 9.6 | 0.00 | 0.00 | 0.00 | 1 | 1017.0 |
| 20260502201719 | 78 | 246 | 2.6 | 6.1 | 0.00 | 0.00 | 0.00 | 1 | 1017.0 |
| 20260502201216 | 78 | 284 | 3.5 | 7.8 | 0.00 | 0.00 | 0.00 | 1 | 1017.3 |
| 20260502200710 | 78 | 103 | 4.3 | 9.6 | 0.00 | 0.00 | 0.00 | 1 | 1017.4 |
| 20260502200210 | 77 | 84 | 5.2 | 11.3 | 0.00 | 0.00 | 0.00 | 1 | 1017.4 |
| 20260502195708 | 77 | 139 | 5.2 | 11.3 | 0.00 | 0.00 | 0.00 | 1 | 1017.5 |
| 20260502195210 | 78 | 107 | 4.3 | 10.4 | 0.00 | 0.00 | 0.00 | 1 | 1017.6 |
| 20260502194710 | 78 | 187 | 2.6 | 10.4 | 0.00 | 0.00 | 0.00 | 1 | 1017.6 |
| 20260502194209 | 77 | 113 | 3.5 | 9.6 | 0.00 | 0.00 | 0.00 | 1 | 1017.6 |
| 20260502193704 | 76 | 196 | 3.5 | 9.6 | 0.00 | 0.00 | 0.00 | 1 | 1017.6 |
| 20260502193157 | 76 | 46 | 3.5 | 7.8 | 0.00 | 0.00 | 0.00 | 1 | 1017.7 |
| 20260502192651 | 76 | 30 | 2.6 | 7.8 | 0.00 | 0.00 | 0.00 | 1 | 1017.8 |
| 20260502192149 | 77 | 100 | 3.5 | 7.0 | 0.00 | 0.00 | 0.00 | 1 | 1018.0 |
| 20260502191646 | 76 | 179 | 4.3 | 7.8 | 0.00 | 0.00 | 0.00 | 1 | 1018.0 |
| 20260502191146 | 76 | 54 | 3.5 | 7.8 | 0.00 | 0.00 | 0.00 | 1 | 1018.0 |
| 20260502190146 | 76 | 98 | 3.5 | 10.4 | 0.00 | 0.00 | 0.00 | 1 | 1018.1 |